National Weather Service United States Department of Commerce


000
ASUS42 KCAE 180410
RWRCAE
REGIONAL WEATHER ROUNDUP
NATIONAL WEATHER SERVICE COLUMBIA SC
1100 PM EST SAT NOV 17 2018

NOTE: "FAIR" INDICATES FEW OR NO CLOUDS BELOW 12,000 FEET WITH NO
SIGNIFICANT WEATHER AND/OR OBSTRUCTIONS TO VISIBILITY.

NOT ALL STATIONS ARE QUALITY CONTROLLED BY THE NATIONAL
WEATHER SERVICE. USE DATA WITH CAUTION...ESPECIALLY
DEWPOINT OBSERVATIONS.

SCZ001>056-GAZ040-063>065-077-180500-
...UPSTATE SOUTH CAROLINA...

CITY SKY/WX TMP DP RH WIND PRES REMARKS
ANDERSON FAIR 42 39 89 CALM 30.25S
LIBERTY FAIR 36 36 100 CALM 30.24F
SPARTANBURG FAIR 41 37 87 CALM 30.25F
CLEMSON FAIR 44 43 96 N3 30.26S
GREENVILLE FAIR 45 40 82 CALM 30.26S
GREENWOOD FAIR 39 39 100 CALM 30.26S
GREER FAIR 42 39 89 CALM 30.26S
ROCK HILL FAIR 40 40 100 CALM 30.27R FOG
CHESTER FAIR 39 39 100 N3 30.27S
LAURENS FAIR 39 37 93 CALM 30.25S


...CENTRAL SOUTH CAROLINA...

CITY SKY/WX TMP DP RH WIND PRES REMARKS
COLUMBIA APT FAIR 52 42 69 CALM 30.26R
COLUMBIA OWENS FAIR 45 42 89 CALM 30.27R FOG
MCENTIRE ANGB FAIR 40 40 100 CALM 30.25S
ORANGEBURG FAIR 44 42 93 CALM 30.25R
SUMTER SHAW FAIR 42 40 91 CALM N/A
AIKEN FAIR 41 41 100 CALM 30.28R
BARNWELL MOCLDY 45 45 100 CALM 30.24S
MANNING FAIR 37 37 100 CALM 30.25F
CAMDEN FAIR 43 39 87 CALM 30.26S
WINNSBORO FAIR 50 41 71 E6 30.26R


...EASTERN AND COASTAL SOUTH CAROLINA...

CITY SKY/WX TMP DP RH WIND PRES REMARKS
MYRTLE BEACH FAIR 48 45 89 N5 30.27F
N MYRTLE BCH FAIR 44 43 96 NE6 30.26F
MARION FAIR 41 39 93 CALM 30.27F
HARTSVILLE FAIR 45 41 87 NE5 30.26S
FLORENCE FAIR 45 41 86 CALM 30.27S
DARLINGTON FAIR 40 39 97 CALM 30.27S
CHARLESTON APT FAIR 53 48 83 NE7 30.23F
WALTERBORO FAIR 45 43 93 CALM 30.25R
HILTON HEAD MOCLDY 57 54 88 NE8 30.22F


...EASTERN GEORGIA...

CITY SKY/WX TMP DP RH WIND PRES REMARKS
AUGUSTA BUSH F FAIR 43 42 97 CALM 30.24S
AUGUSTA DANIEL FAIR 52 44 74 E5 30.24S
THOMSON FAIR 41 40 97 CALM 30.28F
CLAXTON FAIR 46 46 99 CALM 30.23S FOG
SYLVANIA FAIR 45 45 100 CALM 30.24S
STATESBORO FAIR 45 45 99 CALM 30.23S FOG
SAVANNAH FAIR 53 51 93 NE3 30.23R


...SOUTHERN NORTH CAROLINA...

CITY SKY/WX TMP DP RH WIND PRES REMARKS
CHARLOTTE FAIR 48 40 73 S3 30.27R
MONROE FAIR 43 39 86 CALM 30.26S
ROCKINGHAM FAIR 41 41 100 E3 30.27F
ASHEVILLE FAIR 38 34 85 CALM 30.26S

$$